Location: Goettingen
(51.5300°N, 9.9433°E)
Time: 13:47:51
(UTC+02:00)

ISS - Pass Details

Date: 28 June 2022
Orbit: 414 x 420 km, 51.6° (Epoch: 03 July)

Event Time Altitude Azimuth Distance (km) Brightness Sun altitude
Exits shadow 04:08:34 - 184° (S) 1,866 -1.0 -6.9°
Reaches altitude 10° 04:10:06 10° 165° (SSE) 1,493 -1.3 -6.7°
Maximum altitude 04:11:36 13° 138° (SE) 1,352 -1.3 -6.6°
Drops below altitude 10° 04:13:06 10° 111° (ESE) 1,499 -0.7 -6.5°
Sets 04:16:09 0° 81° (E) 2,369 0.9 -6.2°
